Home   Weather   Oberwart   Past weeks

Flag for Austria Past Weather in Oberwart, Burgenland, Austria — Yesterday and Last 2 Weeks

Now
55 °F

Cool.


Feels Like: 55 °F
Forecast: 47 / 72 °F
Wind: 2 mph from North

Location: Eisenstadt

Current Time: Sep 30, 2016 at 3:41:02 AM

Latest Report: Sep 30, 2016 at 3:00 AM


Visibility: N/A

Pressure: 30.06 "Hg

Humidity: 85%

Dew Point: 50 °F

Location of OberwartLocation

Past Weather in Oberwart — Graph

°F

Oberwart Temperature Yesterday

Maximum temperature yesterday: 80 °F (at 4:00 PM)
Minimum temperature yesterday: 55 °F (at 3:00 AM)
Average temperature yesterday: 66 °F

High & Low Weather Summary for the Past Weeks

 TemperatureHumidityPressure
High82 °F (Sep 15, 3:00 PM)95% (Sep 18, 7:00 AM)30.38 "Hg (Sep 18, 7:00 AM)
Low44 °F (Sep 23, 7:00 AM)29% (Sep 29, 5:00 PM)29.75 "Hg (Sep 17, 5:00 AM)
Average61 °F70%30.08 "Hg
* Reported Sep 15 2:00 AM — Sep 30 2:00 AM, Oberwart, Weather by CustomWeather, © 2016

Note: Actual official high and low records may vary slightly from our data, if they occured in-between our weather recording intervals... More about our weather records

Advertising

Oberwart Weather History for the Previous 24 Hours

Scroll right to see more
 ConditionsComfort  
Time TempWeatherWind HumidityBarometerVisibility
2:00 AM
Fri, Sep 30
56 °FClear.1 mph83%30.06 "Hg9 mi
1:00 AM58 °FCool.5 mph82%30.06 "HgN/A
11:00 PM
Thu, Sep 29
60 °FClear.2 mph80%30.06 "Hg9 mi
10:00 PM61 °FCool.3 mph78%30.06 "HgN/A
9:00 PM62 °FCool.3 mph72%30.07 "HgN/A
8:00 PM65 °FClear.2 mph61%30.06 "Hg9 mi
6:00 PM78 °FPleasantly warm.3 mph32%30.06 "HgN/A
5:00 PM80 °FPleasantly warm.3 mph29%30.07 "HgN/A
4:00 PM80 °FPleasantly warm.2 mph31%30.09 "HgN/A
3:00 PM79 °FPleasantly warm.2 mph32%30.12 "HgN/A
2:00 PM77 °FPartly sunny.3 mph36%30.15 "Hg16 mi
1:00 PM78 °FPleasantly warm.2 mph36%30.19 "HgN/A
12:00 PM77 °FMild.2 mph37%30.21 "HgN/A
11:00 AM74 °FPassing clouds.2 mph48%30.23 "Hg12 mi
10:00 AM70 °FMild.1 mph56%30.25 "HgN/A
9:00 AM61 °FCool.2 mph70%30.26 "HgN/A
8:00 AM59 °FCool.3 mph79%30.26 "HgN/A
7:00 AM58 °FCool.5 mph80%30.27 "HgN/A
6:00 AM59 °FPassing clouds.3 mph77%30.27 "Hg6 mi
5:00 AM59 °FPassing clouds.3 mph78%30.28 "Hg6 mi
4:00 AM56 °FClear.1 mph79%30.27 "Hg6 mi
3:00 AM55 °FCool.3 mph82%30.28 "HgN/A
Weather by CustomWeather, © 2016

See weather overviewHow to use our weather pages